User: anonymous   Login
Location: Kernascl�den
(48.0062°N, 3.3198°W)
Time: 13:20:56
(UTC+00:00)
Language:

Cosmos 1898 Rocket - Orbit

View from above orbital plane
View from above orbital plane
View from above satellite
View from above satellite

Ground track
Ground track

The orbit data is extracted from the following two-line orbital elements,

1 18586U 87098B   21104.51102375  .00000012  00000-0  12897-4 0  9996
2 18586  74.0062 241.9731 0021624 326.1229  33.8542 14.36944688747754
Epoch (UTC): 14 April 2021 12:15:52
Eccentricity: 0.0021624
inclination: 74.0062°
perigee height: 753 km
apogee height: 784 km
right ascension of ascending node: 241.9731°
argument of perigee: 326.1229°
revolutions per day: 14.36944688
mean anomaly at epoch: 33.8542°
orbit number at epoch: 74775

The dashed part of the orbit path shows where the satellite is in the earth's shadow,  

DLR